Date,TemperatureHighF,TemperatureAvgF,TemperatureLowF,DewpointHighF,DewpointAvgF,DewpointLowF,HumidityHigh,HumidityAvg,HumidityLow,PressureMaxIn,PressureMinIn,WindSpeedMaxMPH,WindSpeedAvgMPH,GustSpeedMaxMPH,PrecipitationSumIn
2013-3-1,47.7,42.0,37.2,35.6,34.1,32.5,89,74,58,30.53,30.39,9,3,0,0.00
2013-3-2,52.0,43.8,36.0,41.7,37.2,31.9,93,78,62,30.39,30.22,19,8,0,0.00
2013-3-3,45.5,43.9,42.3,42.0,39.7,36.9,91,85,78,30.24,30.07,12,3,0,0.00
2013-3-4,43.5,41.2,37.0,37.4,35.1,32.3,90,79,67,30.07,29.73,13,3,0,0.00
2013-3-5,45.3,38.4,33.4,37.1,34.2,32.2,96,85,67,29.73,29.64,10,3,0,0.00
2013-3-6,41.5,40.6,39.4,38.8,36.7,34.8,90,86,82,29.73,29.66,13,4,0,0.00
2013-3-7,42.8,41.3,40.1,41.8,39.3,35.8,97,93,82,29.66,29.60,22,7,0,0.06
2013-3-8,40.8,38.6,37.6,38.9,36.3,0.0,99,90,82,29.75,29.62,22,-1,0,0.25
2013-3-9,39.4,38.0,36.3,36.6,32.4,25.1,96,81,62,29.94,29.75,20,8,0,0.06
2013-3-10,36.9,31.8,27.1,31.4,27.1,20.8,96,83,60,30.12,29.93,33,11,0,0.06
2013-3-11,35.1,29.3,24.4,23.9,19.7,16.7,86,68,49,30.14,30.11,24,13,0,0.00
2013-3-12,41.5,34.5,27.9,29.7,25.3,19.4,76,69,59,30.11,29.87,21,10,0,0.00
2013-3-13,40.1,36.2,33.4,28.1,24.8,21.5,76,63,48,29.96,29.83,21,8,0,0.00
2013-3-14,41.5,36.5,31.3,38.2,31.3,24.0,93,81,68,29.95,29.54,21,9,0,0.01
2013-3-15,45.5,41.6,37.6,39.5,36.6,34.1,93,82,69,29.54,29.33,25,9,0,0.01
2013-3-16,41.2,37.4,34.7,40.1,35.0,31.8,97,91,84,29.37,29.15,28,7,0,0.03
2013-3-17,42.1,38.8,35.2,39.0,35.9,32.4,95,89,77,29.30,29.13,29,7,0,0.16
2013-3-18,40.1,36.1,32.4,38.8,33.8,30.1,95,91,84,29.56,29.30,26,10,0,0.17
2013-3-19,36.0,34.1,32.2,33.5,31.7,29.7,94,91,85,29.69,29.54,27,10,0,0.06
2013-3-20,38.5,35.1,32.5,33.2,29.9,0.0,95,81,61,30.07,29.69,18,-5,0,0.06
2013-3-21,37.9,32.4,29.8,32.5,28.0,0.0,94,79,63,30.11,30.05,21,-44,0,0.07
2013-3-22,36.5,35.1,33.6,33.0,28.9,25.8,92,78,68,30.10,30.03,36,16,0,0.00
2013-3-23,35.2,34.2,33.8,28.8,26.5,0.0,80,73,62,30.24,30.10,34,10,0,0.00
2013-3-24,36.0,34.8,34.3,28.0,24.8,0.0,75,66,59,30.32,30.23,29,8,0,0.00
2013-3-25,36.7,35.2,33.3,30.3,26.6,0.0,88,70,60,30.33,30.27,20,4,0,0.01
2013-3-26,38.3,34.8,31.3,29.9,27.3,0.0,91,73,55,30.27,30.17,17,-4,0,0.02
2013-3-27,38.1,33.5,31.3,31.8,27.6,0.0,91,77,62,30.17,30.10,23,-12,0,0.01
2013-3-28,40.3,35.7,31.8,31.1,28.0,26.0,86,74,58,30.11,30.04,18,7,0,0.00
2013-3-29,38.8,35.1,31.5,33.8,27.8,25.2,91,75,61,30.04,29.93,15,6,0,0.02
2013-3-30,39.2,35.4,30.6,30.7,27.4,25.0,88,73,58,30.01,29.94,11,2,0,0.00
2013-3-31,38.8,35.1,30.0,30.7,25.4,20.0,85,68,48,30.01,29.99,15,3,0,0.00